This is the latest recevied weather packets stored in our database for station/object W4DEX-2. If no packets are shown the sender has not sent any weather packets the latest 10 day(s).
| Time | Temp. | Humidity | Pressure | Rain* | Wind** | Luminosity | Snow |
|---|---|---|---|---|---|---|---|
| 1777438502 | 15° C | 84% | 1014.8 hPa | 0 mm | 4.92 m/s, 176° | - | - |
| 1777438202 | 15° C | 84% | 1015.3 hPa | 0 mm | 4.92 m/s, 177° | - | - |
| 1777437903 | 15° C | 84% | 1015.6 hPa | 0 mm | 4.92 m/s, 174° | - | - |
| 1777437302 | 15° C | 84% | 1015.9 hPa | 0 mm | 4.92 m/s, 176° | - | - |
| 1777436702 | 15° C | 84% | 1015.9 hPa | 0 mm | 4.92 m/s, 175° | - | - |
| 1777436402 | 15° C | 84% | 1016 hPa | 0 mm | 4.92 m/s, 175° | - | - |
| 1777435803 | 15° C | 83% | 1016.1 hPa | 0 mm | 4.92 m/s, 175° | - | - |
| 1777435502 | 15° C | 83% | 1016.3 hPa | 0 mm | 4.92 m/s, 176° | - | - |
| 1777434903 | 15° C | 83% | 1016.6 hPa | 0 mm | 4.92 m/s, 174° | - | - |
| 1777434602 | 15.56° C | 82% | 1016.8 hPa | 0 mm | 4.92 m/s, 174° | - | - |
| 1777434302 | 15.56° C | 82% | 1016.9 hPa | 0 mm | 4.92 m/s, 174° | - | - |
| 1777434003 | 15.56° C | 82% | 1016.8 hPa | 0 mm | 4.92 m/s, 173° | - | - |
| 1777433702 | 15.56° C | 82% | 1017 hPa | 0 mm | 4.92 m/s, 177° | - | - |
| 1777433402 | 15.56° C | 82% | 1017.1 hPa | 0 mm | 4.92 m/s, 179° | - | - |
| 1777432803 | 15.56° C | 81% | 1016.9 hPa | 0 mm | 4.92 m/s, 177° | - | - |
| 1777432502 | 15.56° C | 81% | 1016.9 hPa | 0 mm | 4.92 m/s, 177° | - | - |
| 1777432203 | 15.56° C | 81% | 1017 hPa | 0 mm | 4.92 m/s, 178° | - | - |
| 1777429803 | 16.11° C | 80% | 1017.7 hPa | 0 mm | 4.92 m/s, 179° | - | - |
| 1777429202 | 16.11° C | 80% | 1018.1 hPa | 0 mm | 4.92 m/s, 176° | - | - |
| 1777428902 | 16.11° C | 80% | 1018 hPa | 0 mm | 4.92 m/s, 175° | - | - |
| 1777427703 | 16.11° C | 79% | 1018 hPa | 0 mm | 4.92 m/s, 178° | - | - |
| 1777427402 | 16.11° C | 80% | 1017.9 hPa | 0 mm | 4.92 m/s, 179° | - | - |
| 1777427103 | 16.11° C | 80% | 1017.5 hPa | 0 mm | 4.47 m/s, 178° | - | - |
| 1777426803 | 16.11° C | 79% | 1017.3 hPa | 0 mm | 4.92 m/s, 178° | - | - |
| 1777426502 | 16.11° C | 79% | 1017.2 hPa | 0 mm | 4.47 m/s, 177° | - | - |
* Rain latest hour (hover to see other rain measurements)
** Current wind speed in m/s (hover to see current wind gust speed)